sat.trackr.live / text

‹ back to catalog

DSX

NORAD 44344 · 2019-036F

PAYLOAD ACTIVE UNKNOWN

§ Identity

Operator
Country
US
Launch date
2019-06-25
Launch site
AFETR
Launch vehicle
Mass (kg)
RCS (m²)

External: N2YO · Heavens-Above · Gunter

§ Orbital elements

Epoch: 2026-05-25T02:10:59.574720Z

Period
316.92 min
Inclination
42.3288°
Eccentricity
0.1967588
Mean motion
4.54375144 rev/d
Perigee alt
5,990.0 km
Apogee alt
12,049.3 km
Semi-major
15,397.8 km
B*
0.0000e+0
RAAN
359.1230°
Arg perigee
5.9564°
Mean anomaly
356.1242°
Rev number
11,474

§ Raw data

DSX1 44344U 19036F   26145.09096730 -.00000057  00000+0  00000+0 0  99912 44344  42.3288 359.1230 1967588   5.9564 356.1242  4.54375144114741

JSON: /api/v1/satellites/44344 · /tle

For live sub-satellite position, see the globe view (requires WebGL).

§ Visibility from observer

Set your observer location to see the next 7 days of passes ≥ 10°. The values pass through the URL so the page stays shareable.

No JS? Fill the form by hand. The geolocation button needs JavaScript.